Hourly Data Report for January 01, 2007

All times are specified in Local Standard Time (LST). Add 1 hour to adjust for Daylight Saving Time where and when it is observed.

Metadata including Station Name, Province, Latitude, Longitude, Elevation, Climate ID, WMO ID, TC ID
EUREKA
NUNAVUT
Latitude: 79°59'00.000" N Longitude: 85°56'00.000" W Elevation: 10.40 m
Climate ID: 2401200 WMO ID: 71917 TC ID: WEU
Hourly Data Report for January 1, 2007
Temp Definition
°C

Dew Point Temp Definition
°C

Rel Hum Definition
%

Wind Dir Definition
10's deg
Wind Spd Definition
km/h

Visibility Definition
km

Stn Press Definition
kPa

Hmdx Definition

Wind Chill Definition

Weather Definition

TIME
00:00
01:00
02:00 -18.8 -23.0 69 13 26 19.3 98.88 -30 Snow
03:00 -17.8 -30.6 32 12 24 16.1 98.92 -29 Snow
04:00 -17.0 -22.5 62 15 24 6.4 98.94 -28 Snow,Blowing Snow
05:00 -17.8 -22.1 69 12 20 9.7 98.98 -28 Snow
06:00 -16.7 -21.4 67 19 26 6.4 99.04 -28 Snow,Blowing Snow
07:00 -17.8 -22.0 70 17 19 9.7 99.13 -27 Blowing Snow
08:00 -18.2 -22.9 67 17 20 9.7 99.18 -28 Blowing Snow
09:00 -20.3 -24.8 67 13 15 12.9 99.27 -29 Ice Crystals
10:00 -19.5 -24.6 64 17 13 16.1 99.34 -28 Ice Crystals
11:00 -21.5 -26.1 66 13 22 19.3 99.37 -33 Clear
12:00 23.0 -28.2 2 13 17 19.3 99.45 Clear
13:00 -22.7 -27.8 63 18 7 24.1 99.51 -29 Clear
14:00 -23.4 -28.9 61 13 17 24.1 99.56 -34 Clear
15:00 -23.8 -29.1 62 13 19 24.1 99.65 -35 Clear
16:00 -24.5 -29.8 61 14 19 24.1 99.70 -36 Clear
17:00 -25.0 -30.3 61 14 19 24.1 99.73 -37 Mainly Clear
18:00 -25.5 -30.8 61 13 15 24.1 99.76 -36 Mainly Clear
19:00 -27.2 -32.5 61 14 15 24.1 99.84 -38 Mainly Clear
20:00 -26.3 -31.2 63 14 13 24.1 99.87 -36 Mainly Clear
21:00 -28.3 -33.1 63 15 11 24.1 99.90 -38 Mainly Clear
22:00 -29.0 -33.7 64 12 11 24.1 99.90 -38 Mostly Cloudy
23:00 -29.1 -33.7 64   0 24.1 99.89 Mostly Cloudy

Notes on Data Quality.

Legend
  • E = Estimated
  • M = Missing
  • NA = Not Available
  • ‡ = Partner data that is not subject to review by the National Climate Archives